Showing default

JILIN-01-08, 43160

Orbit data source: Space-Track

JILIN-01-08, 43160 is a payload satellite owned by Changguang WJ (CN) in SSO that was launched on Fri, 19 Jan 2018 UTC via a CHANG ZHENG 11 launch vehicle from the Jiuquan Satellite Launch Center, China (JSC). Payload-class satellites include a variety of spacecraft equipped with specific instruments for various scientific and technological missions. These include communications satellites like Starlink; space stations such as the ISS; scientific satellites like the Hubble; Earth observation satellites from companies like Planet Labs, Umbra, and HawkEye 360; GPS; miniature CubeSats for education and research; and military/defense satellites.

Loading next visibility...
Identifier
43160, 2018-008F
Orbit
SSO
Last TLE update
13 hours ago
Origin
Manufacturer
Changguang WJ
Mission
Operational Commercial Imaging
Bus & Motor
JL-1, Unknown motor
Mass
95 kg wet, 95 kg dry
Launch date (UTC)
2018-01-19 (7 years ago)
Launch vehicle
CHANG ZHENG 11
Launch site
Jiuquan Satellite Launch Center, China (JSC)
Object type
Payload
Rocket body
Debris
Shape & HBR
Box + 2 Pan, 1.5 m
Radar Cross Section
2.000 m², Medium (>0.1 m² and < 1m²)

Expand to show TLE details & history

TLE from 13 hours ago
0 JILIN-01-08
1 43160U 18008F   25191.79590488  .00003779  00000-0  14238-3 0  9996
2 43160  97.2065 216.4155 0006253 198.7329 161.3681 15.27658003412723
Epoch: 2025-07-10T19:06Z
TLE epoch observation values (Epoch: 2025-07-10T19:06:06.181Z)
Latitude
-0.0001°
Longitude
0.93271°
Altitude
489.988 km
Speed
7.618 km/s
True Right ascension
14h 25m 39s
True Declination
0° 00' 00"
Sunlit
Object was in daylight at epoch
Visualization orbit readout
Latitude
78.38897°
Longitude
-36.28058°
Altitude
497.902 km
Speed
7.621 km/s
Apparent Right ascension
09h 04m 03s
Apparent Declination
24° 25' 47"
Sunlit
Object is in daylight
Visualization observer readout
Local Sidereal Time
20:19:19
Azimuth
348.783° N
Elevation
-24.814°
Doppler factor
1
Orbital elements
Apogee altitude
484.051 km
Perigee altitude
475.474 km
Semi-major axis
6,857.9 km
Eccentricity
0.00063
Inclination
97.2065°
RAAN
216.4155°
Arg. of periapsis
198.7329°
True anomaly
Unknown
Mean anomaly
161.3681°
Eccentric anomaly
Unknown
Mean motion
3.8217 °/min
Orbital period
94.2 mins
BSTAR
0.00014238
Loading maneuver chart data...
Loading SW <> Apogee altitude chart data...
Loading historical data...
Loading historical data...
Loading historical data...
Loading historical data...
Loading historical data...
Loading historical data...
Loading historical data...

JILIN-01-08 Visibility forecast

Observer location: undefined°, undefined°

Span
Click to sort rows by Start time (UTC) header in descending order
Start Az.
Max El. time (UTC)
Max El. Az.
Max El.
End time (UTC)
End Az.
6 mins2025-07-11 14:31:50.801Z11.675° NNE2025-07-11 14:34:50.801Z193.198° SSW43.996°2025-07-11 14:37:50.801Z192.791° SSW
4 mins2025-07-12 01:07:50.801Z110.155° ESE2025-07-12 01:08:50.801Z84.772° E24.637°2025-07-12 01:11:50.801Z16.441° NNE
|